Total_Precipitation_Accumulation
0.87 0.98 0.88 0.62 0.46 0.34 0.26 0.27 0.26 0.18 0.16 0.24 0.20 0.11 0.05 0.05 0.08 0.08 0.08 0.09 0.12 0.12 0.13 0.18 0.29 0.41 0.48 0.52 0.58 0.64 0.76 0.78 0.84 0.89 0.95 1.00 0.93 0.93 0.94 0.90 0.87 0.82 0.85 0.87
1.01 0.80 0.45 0.36 0.33 0.33 0.34 0.35 0.28 0.20 0.18 0.27 0.24 0.13 0.05 0.04 0.06 0.07 0.07 0.09 0.11 0.12 0.14 0.18 0.26 0.37 0.43 0.44 0.46 0.51 0.66 0.76 0.80 0.83 0.85 0.87 0.89 0.89 0.91 0.87 0.89 0.89 0.87 0.91
0.81 0.49 0.28 0.42 0.49 0.46 0.40 0.32 0.26 0.24 0.25 0.29 0.29 0.20 0.07 0.04 0.05 0.08 0.10 0.11 0.11 0.11 0.13 0.15 0.19 0.31 0.36 0.40 0.40 0.45 0.56 0.70 0.79 0.84 0.98 1.04 1.08 1.11 1.07 0.98 0.90 0.87 0.89 0.90
0.60 0.33 0.31 0.48 0.57 0.51 0.44 0.23 0.22 0.27 0.43 0.46 0.35 0.36 0.12 0.06 0.07 0.08 0.09 0.09 0.10 0.10 0.13 0.15 0.17 0.25 0.31 0.36 0.38 0.43 0.57 0.70 0.77 0.84 0.93 0.99 1.01 1.04 1.02 0.94 0.87 0.81 0.83 0.88
0.69 0.39 0.38 0.48 0.44 0.45 0.39 0.23 0.25 0.34 0.49 0.58 0.38 0.41 0.16 0.08 0.10 0.10 0.10 0.10 0.10 0.10 0.11 0.13 0.16 0.22 0.30 0.39 0.40 0.43 0.55 0.71 0.81 0.88 0.89 0.93 0.92 0.88 0.92 1.00 0.97 0.91 0.88 0.88
0.54 0.36 0.43 0.40 0.31 0.38 0.43 0.45 0.51 0.56 0.88 1.08 0.38 0.33 0.19 0.12 0.14 0.13 0.12 0.11 0.12 0.13 0.12 0.12 0.15 0.19 0.27 0.41 0.45 0.50 0.55 0.65 0.81 0.93 0.93 0.91 0.91 0.91 0.93 1.00 1.04 1.03 0.97 0.91
0.77 0.50 0.41 0.37 0.50 0.63 0.77 1.13 1.74 1.83 1.77 0.98 0.19 0.21 0.22 0.12 0.10 0.12 0.12 0.11 0.11 0.13 0.15 0.14 0.16 0.19 0.24 0.35 0.45 0.50 0.56 0.59 0.68 0.88 0.95 0.90 0.90 0.89 0.87 0.91 0.96 0.98 1.00 0.97
0.84 0.66 0.44 0.40 0.55 0.80 0.89 1.11 1.40 1.28 0.81 0.31 0.12 0.17 0.18 0.09 0.07 0.08 0.10 0.11 0.09 0.10 0.13 0.15 0.15 0.18 0.24 0.29 0.41 0.51 0.57 0.61 0.65 0.75 0.88 0.91 0.95 0.92 0.85 0.83 0.88 0.91 0.90 0.91
0.82 0.55 0.30 0.30 0.31 0.44 0.74 0.88 0.75 0.88 0.56 0.33 0.22 0.15 0.13 0.06 0.05 0.04 0.06 0.09 0.11 0.12 0.14 0.17 0.17 0.19 0.21 0.26 0.36 0.47 0.56 0.67 0.68 0.68 0.82 0.91 0.97 0.97 0.87 0.80 0.82 0.86 0.88 0.90
0.89 0.74 0.37 0.34 0.42 0.49 0.58 0.69 0.91 1.30 1.05 0.51 0.24 0.14 0.16 0.11 0.07 0.05 0.04 0.05 0.08 0.11 0.13 0.16 0.20 0.20 0.19 0.23 0.32 0.41 0.48 0.61 0.75 0.71 0.75 0.90 0.95 0.98 0.95 0.88 0.82 0.80 0.80 0.87
0.87 0.99 0.64 0.55 0.72 0.68 0.61 0.83 1.09 1.19 0.96 0.64 0.35 0.24 0.21 0.12 0.08 0.08 0.06 0.06 0.07 0.09 0.11 0.14 0.21 0.23 0.21 0.21 0.28 0.40 0.45 0.54 0.72 0.80 0.76 0.80 0.90 0.94 0.98 0.97 0.88 0.81 0.79 0.81
0.84 1.15 0.90 0.57 0.49 0.45 0.53 0.67 0.83 1.11 0.91 0.54 0.41 0.26 0.16 0.11 0.08 0.08 0.08 0.06 0.06 0.08 0.11 0.14 0.23 0.25 0.25 0.25 0.28 0.37 0.40 0.45 0.58 0.77 0.83 0.79 0.82 0.93 0.95 0.88 0.85 0.86 0.83 0.82
1.29 1.67 1.44 1.07 0.83 0.71 0.80 0.70 0.67 0.72 0.75 0.59 0.45 0.23 0.13 0.09 0.07 0.06 0.06 0.07 0.06 0.06 0.08 0.12 0.20 0.24 0.26 0.27 0.31 0.39 0.40 0.38 0.43 0.63 0.78 0.85 0.86 0.90 0.96 0.90 0.82 0.86 0.89 0.87
1.78 1.93 1.29 1.07 0.84 0.74 0.73 0.59 0.57 0.80 0.99 0.55 0.25 0.17 0.12 0.09 0.07 0.07 0.06 0.08 0.07 0.06 0.07 0.09 0.12 0.17 0.22 0.22 0.27 0.34 0.37 0.35 0.35 0.48 0.66 0.76 0.83 0.88 0.92 0.94 0.92 0.89 0.87 0.89
1.81 1.76 0.75 0.39 0.31 0.38 0.42 0.38 0.42 0.59 0.59 0.47 0.20 0.13 0.14 0.12 0.12 0.10 0.09 0.09 0.09 0.07 0.08 0.08 0.08 0.12 0.17 0.18 0.22 0.28 0.34 0.35 0.34 0.37 0.49 0.66 0.76 0.85 0.91 0.95 0.97 1.00 0.99 0.91
1.65 1.60 0.80 0.44 0.23 0.30 0.34 0.26 0.28 0.32 0.29 0.26 0.16 0.12 0.09 0.08 0.09 0.09 0.09 0.10 0.11 0.11 0.10 0.09 0.08 0.10 0.14 0.17 0.20 0.23 0.29 0.33 0.33 0.35 0.37 0.51 0.68 0.81 0.88 0.94 1.02 1.03 1.05 1.03
1.50 1.49 1.26 0.78 0.34 0.59 0.67 0.34 0.29 0.30 0.26 0.24 0.25 0.21 0.11 0.07 0.07 0.10 0.11 0.13 0.14 0.13 0.12 0.10 0.10 0.10 0.12 0.14 0.18 0.23 0.26 0.28 0.30 0.29 0.29 0.37 0.51 0.70 0.82 0.88 0.96 1.08 1.10 1.08
1.12 1.29 1.61 1.19 0.93 1.24 0.63 0.27 0.25 0.31 0.34 0.28 0.26 0.20 0.14 0.10 0.08 0.10 0.14 0.17 0.14 0.13 0.12 0.11 0.10 0.11 0.12 0.13 0.15 0.21 0.24 0.26 0.28 0.28 0.26 0.27 0.35 0.50 0.68 0.83 0.92 1.01 1.12 1.13
0.63 1.17 1.82 1.63 1.30 0.78 0.34 0.25 0.34 0.38 0.41 0.32 0.24 0.17 0.12 0.08 0.07 0.10 0.11 0.13 0.14 0.13 0.13 0.11 0.11 0.12 0.12 0.12 0.15 0.19 0.21 0.25 0.26 0.26 0.26 0.24 0.26 0.36 0.52 0.67 0.80 0.89 1.01 1.05
0.65 1.14 1.94 1.78 1.38 0.74 0.39 0.23 0.24 0.33 0.49 0.29 0.23 0.21 0.17 0.14 0.17 0.15 0.12 0.12 0.13 0.12 0.12 0.11 0.11 0.12 0.11 0.12 0.16 0.21 0.20 0.22 0.25 0.25 0.25 0.24 0.25 0.29 0.40 0.53 0.66 0.81 0.93 1.00
1.00 1.53 1.80 1.39 1.15 0.60 0.33 0.23 0.23 0.51 0.58 0.31 0.26 0.25 0.23 0.24 0.23 0.17 0.12 0.12 0.13 0.12 0.12 0.13 0.13 0.13 0.12 0.14 0.19 0.25 0.23 0.22 0.25 0.26 0.25 0.24 0.24 0.27 0.34 0.46 0.59 0.78 0.90 0.99
0.77 1.04 1.02 0.92 1.08 0.66 0.34 0.30 0.49 0.59 0.36 0.30 0.26 0.24 0.24 0.23 0.18 0.15 0.14 0.13 0.13 0.13 0.13 0.15 0.16 0.15 0.14 0.16 0.22 0.28 0.26 0.24 0.26 0.25 0.26 0.25 0.23 0.25 0.32 0.45 0.57 0.72 0.87 1.00
0.56 0.72 0.74 0.67 0.62 0.45 0.39 0.44 0.46 0.39 0.35 0.30 0.27 0.24 0.22 0.22 0.20 0.17 0.15 0.15 0.14 0.16 0.15 0.17 0.19 0.18 0.18 0.19 0.25 0.29 0.28 0.27 0.26 0.25 0.25 0.26 0.26 0.27 0.31 0.40 0.55 0.74 0.85 0.97
0.40 0.38 0.50 0.51 0.39 0.31 0.29 0.30 0.32 0.32 0.31 0.28 0.26 0.25 0.22 0.21 0.20 0.18 0.16 0.16 0.17 0.19 0.18 0.18 0.19 0.21 0.23 0.25 0.28 0.29 0.30 0.30 0.26 0.25 0.25 0.26 0.29 0.33 0.33 0.39 0.50 0.69 0.85 0.97
0.37 0.34 0.39 0.42 0.32 0.26 0.22 0.22 0.23 0.24 0.22 0.21 0.21 0.23 0.22 0.19 0.17 0.16 0.15 0.16 0.18 0.20 0.19 0.18 0.19 0.21 0.27 0.31 0.30 0.28 0.30 0.31 0.28 0.27 0.27 0.27 0.31 0.35 0.38 0.44 0.52 0.63 0.76 0.98
0.28 0.32 0.38 0.41 0.32 0.33 0.28 0.21 0.18 0.18 0.18 0.18 0.17 0.18 0.18 0.16 0.15 0.13 0.14 0.17 0.18 0.18 0.17 0.17 0.18 0.20 0.24 0.28 0.30 0.29 0.30 0.31 0.31 0.30 0.29 0.31 0.35 0.36 0.38 0.47 0.57 0.68 0.76 0.86